Location: Bay Shore Mobile Home Park
(38.5762°N, 75.0841°W)
Time: 20:38:10
(UTC+00:00)

MOS 1 Rocket - Pass Details

Date: 15 November 2025
Orbit: 610 x 813 km, 97.4° (Epoch: 08 December)

Event Time Altitude Azimuth Distance (km) Brightness Sun altitude
Rises 23:32:52 0° 184° (S) 2,855 6.6 -20.7°
Reaches altitude 10° 23:35:07 10° 192° (SSW) 1,960 5.8 -21.1°
Maximum altitude 23:39:07 40° 262° (W) 915 4.4 -21.9°
Drops below altitude 10° 23:43:15 10° 333° (NNW) 2,025 5.9 -22.7°
Sets 23:45:37 0° 341° (NNW) 2,964 6.7 -23.2°
